Weather History for KCKV - December, 2013

Change the Weather History Date:

Saturday, December 7, 2013

  Actual Average Record
Temperature  
Mean Temperature 25 °F -  
Max Temperature 28 °F - 72 °F (1980)
Min Temperature 22 °F - 8 °F (1977)
Degree Days  
Heating Degree Days 40    
Month to date heating degree days 126  
Since 1 July heating degree days 959  
Cooling Degree Days 0    
Month to date cooling degree days 2  
Moisture  
Dew Point 21 °F    
Average Humidity 87    
Maximum Humidity 92    
Minimum Humidity 81    
Precipitation  
Precipitation T in - 2.20 in (1957)
Month to date precipitation 1.08  
Sea Level Pressure  
Sea Level Pressure 30.51 in    
Wind  
Wind Speed 11 mph (NNE)    
Max Wind Speed 20 mph    
Max Gust Speed 23 mph    
Visibility 7 miles    
Events      
T = Trace of Precipitation, MM = Missing Value Source: NWS Daily Summary

Daily Weather History Graph

Daily Weather History Graph

Search for Another Location

Airport or City:

Trip Planner

Search our weather history database for the weather conditions in past years. The results will help you decide how hot, cold, wet, or windy it might be!

Date:

Astronomy

Dec. 07, 2013 Rise Set
Actual Time 6:48 AM CST 4:33 PM CST
Civil Twilight 6:20 AM CST 5:02 PM CST
Nautical Twilight 5:47 AM CST 5:34 PM CST
Astronomical Twilight 5:16 AM CST 6:05 PM CST
Moon 10:39 AM CST (12/7) 10:08 PM CST (12/7)
Length of Visible Light 10h 42m
Length of Day
9h 44m
Waxing Crescent, 29% of the Moon is Illuminated
Dec 7
Waxing Crescent
Dec 9
First Quarter
Dec 17
Full
Dec 25
Last Quarter
Jan 1
New

Hourly Weather History & Observations

Time (CST) Temp. Windchill Dew Point Humidity Pressure Visibility Wind Dir Wind Speed Gust Speed Precip Events Conditions
12:52 AM 26.1 °F 14.0 °F 23.0 °F 88% 30.45 in 9.0 mi North 15.0 mph - N/A   Overcast
1:52 AM 26.1 °F 15.0 °F 23.0 °F 88% 30.47 in 10.0 mi North 12.7 mph - N/A   Overcast
2:52 AM 25.0 °F 13.6 °F 21.0 °F 85% 30.49 in 9.0 mi North 12.7 mph - N/A   Overcast
3:52 AM 24.1 °F 11.5 °F 19.9 °F 84% 30.50 in 10.0 mi North 15.0 mph - N/A   Overcast
4:50 AM 23.0 °F 9.6 °F 19.4 °F 86% 30.49 in 10.0 mi North 16.1 mph - N/A   Overcast
4:52 AM 23.0 °F 10.1 °F 19.9 °F 88% 30.51 in 10.0 mi North 15.0 mph - N/A   Overcast
5:36 AM 23.0 °F 9.6 °F 19.4 °F 86% 30.51 in 10.0 mi North 16.1 mph - N/A   Overcast
5:52 AM 23.0 °F 11.1 °F 19.0 °F 85% 30.54 in 9.0 mi North 12.7 mph - N/A   Overcast
6:09 AM 21.2 °F 10.1 °F 19.4 °F 93% 30.53 in 9.0 mi North 10.4 mph - N/A   Overcast
6:19 AM 23.0 °F 13.1 °F 19.4 °F 86% 30.53 in 9.0 mi North 9.2 mph 17.3 mph N/A   Overcast
6:52 AM 21.9 °F 9.2 °F 18.0 °F 85% 30.56 in 9.0 mi North 13.8 mph - N/A   Overcast
7:04 AM 21.2 °F 7.3 °F 17.6 °F 86% 30.54 in 9.0 mi North 16.1 mph - N/A   Overcast
7:52 AM 21.9 °F 10.4 °F 18.0 °F 85% 30.57 in 8.0 mi NNE 11.5 mph - N/A   Overcast
8:52 AM 21.9 °F 9.8 °F 18.0 °F 85% 30.59 in 6.0 mi NNE 12.7 mph - N/A   Overcast
9:52 AM 21.9 °F 10.4 °F 19.0 °F 89% 30.60 in 6.0 mi North 11.5 mph - N/A   Overcast
10:52 AM 23.0 °F 13.1 °F 19.9 °F 88% 30.61 in 5.0 mi North 9.2 mph - N/A   Overcast
11:52 AM 24.1 °F 14.4 °F 21.0 °F 88% 30.57 in 5.0 mi North 9.2 mph - N/A   Overcast
12:52 PM 25.0 °F 15.5 °F 21.0 °F 85% 30.54 in 5.0 mi NNE 9.2 mph - N/A   Overcast
1:09 PM 24.8 °F 15.3 °F 21.2 °F 86% 30.51 in 5.0 mi North 9.2 mph - N/A   Overcast
1:52 PM 25.0 °F 15.5 °F 21.9 °F 88% 30.53 in 5.0 mi NNE 9.2 mph - N/A   Overcast
2:52 PM 25.0 °F 14.8 °F 21.9 °F 88% 30.53 in 6.0 mi North 10.4 mph - N/A   Overcast
3:06 PM 24.8 °F 16.1 °F 21.2 °F 86% 30.51 in 6.0 mi NNE 8.1 mph - N/A   Overcast
3:52 PM 25.0 °F 18.1 °F 21.0 °F 85% 30.53 in 6.0 mi NNE 5.8 mph - N/A   Overcast
4:52 PM 24.1 °F 14.4 °F 21.0 °F 88% 30.53 in 7.0 mi North 9.2 mph - N/A   Overcast
5:52 PM 24.1 °F 13.7 °F 21.0 °F 88% 30.53 in 6.0 mi North 10.4 mph - N/A   Overcast
6:52 PM 25.0 °F 14.2 °F 21.9 °F 88% 30.50 in 5.0 mi NNE 11.5 mph - N/A   Overcast
7:02 PM 24.8 °F 14.6 °F 21.2 °F 86% 30.46 in 5.0 mi NNE 10.4 mph - N/A   Overcast
7:26 PM 24.8 °F 16.9 °F 21.2 °F 86% 30.48 in 5.0 mi NNE 6.9 mph - N/A   Overcast
7:52 PM 26.1 °F 16.8 °F 23.0 °F 88% 30.50 in 6.0 mi NE 9.2 mph - N/A   Overcast
8:52 PM 27.0 °F 16.7 °F 24.1 °F 89% 30.46 in 7.0 mi East 11.5 mph - N/A   Overcast
9:52 PM 27.0 °F 16.7 °F 23.0 °F 85% 30.43 in 8.0 mi ENE 11.5 mph - 0.00 in   Overcast
10:52 PM 27.0 °F 18.7 °F 24.1 °F 89% 30.41 in 8.0 mi ENE 8.1 mph - N/A   Overcast
11:52 PM 28.0 °F 20.0 °F 25.0 °F 88% 30.39 in 6.0 mi ENE 8.1 mph - 0.00 in   Overcast